Location: Litvinovka
(48.6667°N, 34.3500°E)
Time: 03:37:09
(UTC+00:00)

USA 234 - Pass Details

Date: 18 September 2020
Orbit: 1102 x 1106 km, 123.0° (Epoch: 16 October)

Event Time Altitude Azimuth Distance (km) Brightness Sun altitude
Rises 23:37:08 0° 107° (ESE) 3,914 6.4 -33.5°
Reaches altitude 10° 23:39:37 10° 105° (ESE) 2,958 5.7 -33.3°
Maximum altitude 23:46:04 66° 25° (NNE) 1,196 3.5 -32.6°
Enters shadow 23:50:39 21° 309° (NW) 2,265 4.8 -32.1°
Exits shadow 23:54:27 - 303° (WNW) 3,699 5.9 -31.7°
Sets 23:55:03 0° 303° (WNW) 3,927 6.1 -31.7°
